[[{"header":{"parameterUnit":"m.s-1","parameterCategory":1,"la1":30.2991,"la2":30.254,"lo1":-89.0895,"lo2":-89.0444,"dy":0.0017,"dx":0.0017,"nx":28,"ny":28,"refTime":"2024-07-25T21:00:00:Z","depth":0,"parameterNumber":2,"parameterNumberName":"U-component_of_WINDS"},"data":[0,0,0,0,0,0,0,0,0,0,0,0,0,0,0,0,0,0,0,0,0,0,0,0,0,0,0,0,0,0,0,0,0,0,0,0,0,0,0,0,0,0,0,0,0,0,0,0,0,0,0,0,0,0,0,0,0,0,-0.129,-0.1289,0,-0.115,-0.1148,-0.1147,-0.1037,-0.1036,-0.1035,-0.1034,-0.089,-0.0888,-0.0885,0,0,0,0,0,0,0,0,0,0,0,0,0,-0.1465,-0.1463,-0.1291,-0.1289,-0.1287,-0.115,-0.1148,-0.1146,-0.1037,-0.1036,-0.1035,-0.1033,-0.0891,-0.0888,-0.0884,0,0,0,0,0,0,0,0,0,0,0,0,0,-0.1364,-0.1462,-0.1291,-0.1216,-0.1208,-0.115,-0.1148,-0.1146,-0.1037,-0.1036,-0.1034,-0.1033,-0.0892,-0.0888,-0.0884,-0.089,0,0,-0.0871,-0.0869,0,0,0,0,0,0,0,0,-0.137,-0.1357,-0.1229,-0.1221,-0.1212,-0.1109,-0.1157,-0.106,-0.1038,-0.1102,-0.1034,-0.1032,-0.0964,-0.0954,-0.0931,-0.0883,-0.0877,-0.0871,-0.0868,-0.0866,-0.0865,0,0,0,0,0,0,0,-0.1377,-0.1363,-0.1235,-0.1227,-0.1217,-0.119,-0.1174,-0.1138,-0.1044,-0.1096,-0.1088,-0.1073,-0.096,-0.0936,-0.0927,-0.0875,-0.0871,-0.0867,-0.0864,-0.0863,-0.0824,-0.0826,0,0,0,0,0,0,-0.1395,-0.1369,-0.1239,-0.1231,-0.1288,-0.1188,-0.117,-0.1144,-0.1044,-0.1027,-0.1075,-0.1068,-0.0944,-0.0932,-0.0922,-0.0922,-0.0866,-0.0862,-0.086,-0.0823,-0.0825,-0.0826,0,0,0,0,0,0,-0.1399,-0.1385,-0.1245,-0.1298,-0.1278,-0.1187,-0.1158,-0.1142,-0.1118,-0.1027,-0.101,-0.1067,-0.0942,-0.0928,-0.0898,-0.0916,-0.086,-0.0856,-0.0821,-0.0823,-0.0825,-0.0924,0,0,0,0,0,0,-0.1405,-0.1387,-0.1388,-0.1298,-0.1275,-0.1225,-0.1159,-0.114,-0.1111,-0.1102,-0.1016,-0.1001,-0.094,-0.0905,-0.0894,-0.0909,-0.0853,-0.0819,-0.0822,-0.0825,-0.0919,-0.093,-0.0939,0,0,0,0,0,-0.1412,-0.1421,-0.1389,-0.1374,-0.1275,-0.1226,-0.1212,-0.1142,-0.1113,-0.1113,-0.1055,-0.1003,-0.0916,-0.0903,-0.089,-0.0904,-0.0818,-0.0821,-0.0824,-0.0915,-0.0928,-0.0938,0,0,0,0,0,0,-0.1516,-0.1408,-0.1371,-0.1352,-0.1299,-0.1207,-0.1206,-0.1158,-0.1112,-0.1105,-0.102,-0.1002,-0.0982,-0.0939,-0.0928,-0.0904,-0.086,-0.0861,-0.0933,-0.0945,-0.0954,-0.0966,-0.085,0,0,0,0,0,-0.1536,-0.1505,-0.1413,-0.1405,-0.138,-0.1298,-0.1274,-0.1224,-0.1166,-0.1143,-0.1082,-0.1028,-0.0988,-0.0963,-0.0922,-0.0912,-0.0892,-0.0914,-0.0924,-0.0933,-0.0935,-0.0928,-0.0937,-0.0838,-0.0838,-0.0837,0,0,-0.1579,-0.1516,-0.1502,-0.1424,-0.1377,-0.1348,-0.128,-0.1251,-0.1228,-0.1138,-0.1108,-0.1061,-0.0995,-0.0976,-0.0964,-0.094,-0.0958,-0.0937,-0.0945,-0.0942,-0.0932,-0.0942,-0.0951,-0.084,-0.0839,-0.0839,0,0,-0.1641,-0.1591,-0.1579,-0.1533,-0.1463,-0.1408,-0.1405,-0.1321,-0.1287,-0.1254,-0.1187,-0.1158,-0.1091,-0.1047,-0.1015,-0.1061,-0.1012,-0.105,-0.1102,-0.1096,-0.1104,-0.111,-0.1128,-0.1135,-0.1052,-0.1052,-0.1052,0,-0.1704,-0.1656,-0.1579,-0.1554,-0.1523,-0.144,-0.1428,-0.1387,-0.1307,-0.1287,-0.1261,-0.1175,-0.1124,-0.1094,-0.1106,-0.1082,-0.1077,-0.106,-0.1109,-0.1114,-0.112,-0.1136,-0.1142,-0.1057,-0.1057,-0.1056,-0.1056,0,-0.1736,-0.1704,-0.1703,-0.1628,-0.1595,-0.1578,-0.1499,-0.1475,-0.1428,-0.1377,-0.1345,-0.1281,-0.1225,-0.1214,-0.1168,-0.1178,-0.1165,-0.1125,-0.1079,-0.1136,-0.1149,-0.1155,-0.1065,-0.1063,-0.1062,-0.106,0,0,-0.1861,-0.1744,-0.1745,-0.171,-0.1626,-0.16,-0.1578,-0.1524,-0.1506,-0.1453,-0.1434,-0.1379,-0.1341,-0.1306,-0.1253,-0.1248,-0.129,-0.1208,-0.1205,-0.1227,-0.1299,-0.1331,-0.1339,-0.1256,-0.1257,-0.1258,-0.1305,0,-0.1912,-0.1868,-0.1799,-0.1778,-0.1748,-0.1669,-0.165,-0.1597,-0.1548,-0.1515,-0.146,-0.1423,-0.1376,-0.1354,-0.1345,-0.1287,-0.1304,-0.1282,-0.1238,-0.1238,-0.126,-0.1346,-0.138,-0.1428,-0.131,-0.131,-0.1311,0,-0.1966,-0.1918,-0.1895,-0.1813,-0.1798,-0.1783,-0.1727,-0.1697,-0.1635,-0.1599,-0.156,-0.1503,-0.1476,-0.1434,-0.1396,-0.1383,-0.1361,-0.133,-0.133,-0.1325,-0.1279,-0.1345,-0.1441,-0.1449,-0.1318,-0.1318,-0.1317,0,-0.2062,-0.1991,-0.1968,-0.1941,-0.1845,-0.1836,-0.1796,-0.1732,-0.1704,-0.1656,-0.1637,-0.1586,-0.1559,-0.152,-0.1452,-0.1427,-0.1422,-0.1373,-0.1393,-0.1395,-0.1397,-0.1399,-0.1493,-0.138,-0.138,-0.138,-0.138,0,-0.2127,-0.2116,-0.201,-0.1997,-0.1982,-0.1902,-0.1891,-0.1843,-0.1787,-0.1763,-0.169,-0.1669,-0.1578,-0.1547,-0.1492,-0.1471,-0.1458,-0.143,-0.1416,-0.1437,-0.1441,-0.1423,-0.1418,-0.1382,-0.1381,-0.1381,-0.1381,0,-0.2233,-0.2161,-0.2131,-0.2043,-0.2021,-0.2014,-0.1939,-0.1923,-0.1869,-0.1839,-0.1828,-0.1744,-0.1703,-0.163,-0.1568,-0.1531,-0.1521,-0.1496,-0.1543,-0.1534,-0.1559,-0.1558,-0.1646,-0.1654,-0.1536,-0.1537,-0.1538,0,-0.228,-0.227,-0.2181,-0.216,-0.2122,-0.2088,-0.2059,-0.198,-0.1953,-0.1882,-0.1874,-0.1828,-0.1786,-0.1725,-0.1658,-0.1611,-0.1585,-0.1619,-0.1577,-0.16,-0.1588,-0.159,-0.1589,-0.1629,-0.1631,-0.1632,-0.1633,0,-0.2372,-0.2337,-0.2298,-0.2247,-0.2214,-0.217,-0.2122,-0.2109,-0.2019,-0.1992,-0.1949,-0.1917,-0.1854,-0.1809,-0.1752,-0.1711,-0.1658,-0.1647,-0.1649,-0.1672,-0.1701,-0.1687,-0.157,-0.1646,-0.1644,-0.1644,-0.1643,-0.1642,-0.2451,-0.2439,-0.2375,-0.2334,-0.2289,-0.2246,-0.2227,-0.2171,-0.2134,-0.2076,-0.2031,-0.1993,-0.1931,-0.1849,-0.1811,-0.1779,-0.1755,-0.1758,-0.1759,-0.1761,-0.1771,-0.1704,-0.1768,-0.1768,-0.1767,-0.1767,-0.1767,0,-0.2541,-0.2496,-0.2459,-0.2394,-0.2362,-0.2314,-0.2258,-0.2235,-0.2202,-0.2149,-0.211,-0.2061,-0.2017,-0.1947,-0.1898,-0.1886,-0.1861,-0.1876,-0.1877,-0.1869,-0.1795,-0.1799,-0.1898,-0.1898,-0.1898,-0.1898,-0.1898,-0.1898,-0.2584,-0.2562,-0.2519,-0.2474,-0.2428,-0.239,-0.2362,-0.2322,-0.228,-0.2229,-0.2192,-0.2147,-0.2087,-0.2032,-0.199,-0.1971,-0.1957,-0.198,-0.1954,-0.1886,-0.1874,-0.1862,-0.1866,-0.1977,-0.1978,-0.203,-0.2031,-0.2031]},{"header":{"parameterUnit":"m.s-1","parameterCategory":1,"la1":30.2991,"la2":30.254,"lo1":-89.0895,"lo2":-89.0444,"dy":0.0017,"dx":0.0017,"nx":28,"ny":28,"refTime":"2024-07-25T21:00:00:Z","depth":0,"parameterNumber":3,"parameterNumberName":"V-component_of_WINDS"},"data":[0,0,0,0,0,0,0,0,0,0,0,0,0,0,0,0,0,0,0,0,0,0,0,0,0,0,0,0,0,0,0,0,0,0,0,0,0,0,0,0,0,0,0,0,0,0,0,0,0,0,0,0,0,0,0,0,0,0,1.6508,1.6508,0,1.6518,1.6519,1.6519,1.6476,1.6475,1.6473,1.6472,1.6484,1.6486,1.6487,0,0,0,0,0,0,0,0,0,0,0,0,0,1.6452,1.6454,1.6508,1.6508,1.6508,1.6518,1.6519,1.6519,1.6476,1.6475,1.6473,1.6472,1.6484,1.6486,1.6487,0,0,0,0,0,0,0,0,0,0,0,0,0,1.6471,1.6454,1.6508,1.6488,1.6487,1.6518,1.6519,1.6519,1.6476,1.6475,1.6473,1.6471,1.6483,1.6485,1.6488,1.6539,0,0,1.6494,1.6495,0,0,0,0,0,0,0,0,1.647,1.6473,1.6491,1.649,1.6488,1.6494,1.6503,1.6526,1.6477,1.648,1.6472,1.647,1.6489,1.6491,1.6497,1.654,1.654,1.6495,1.6496,1.6497,1.6498,0,0,0,0,0,0,0,1.6469,1.6473,1.6512,1.6491,1.649,1.6479,1.648,1.6507,1.6495,1.648,1.6477,1.6479,1.6488,1.6495,1.6497,1.6541,1.6495,1.6497,1.6498,1.6499,1.6626,1.6627,0,0,0,0,0,0,1.647,1.6472,1.6512,1.6513,1.6474,1.6482,1.6482,1.6494,1.6495,1.6493,1.648,1.6477,1.6492,1.6494,1.6497,1.6557,1.6497,1.6499,1.65,1.6624,1.6626,1.6628,0,0,0,0,0,0,1.6469,1.6474,1.6511,1.6491,1.6495,1.6485,1.6498,1.6495,1.6502,1.6495,1.6493,1.6489,1.6491,1.6494,1.6529,1.6557,1.65,1.6502,1.6621,1.6624,1.6627,1.6678,0,0,0,0,0,0,1.6468,1.6474,1.6493,1.6492,1.6497,1.6543,1.65,1.6497,1.6506,1.6501,1.6503,1.6502,1.6489,1.6526,1.6531,1.6559,1.6504,1.6619,1.6623,1.6626,1.6674,1.6683,1.669,0,0,0,0,0,1.6466,1.6508,1.6495,1.65,1.6521,1.6545,1.6547,1.6532,1.6508,1.6528,1.6523,1.6502,1.6553,1.653,1.6535,1.6565,1.6617,1.6621,1.6626,1.667,1.6681,1.669,0,0,0,0,0,0,1.6514,1.6508,1.6493,1.6536,1.6541,1.6538,1.6562,1.6544,1.6556,1.6552,1.6532,1.6533,1.6571,1.6571,1.6545,1.6614,1.6581,1.6587,1.6613,1.6623,1.6631,1.663,1.6506,0,0,0,0,0,1.653,1.6549,1.6543,1.6581,1.6585,1.6573,1.6583,1.657,1.6575,1.6577,1.6575,1.6581,1.6599,1.6611,1.6626,1.6674,1.6673,1.6696,1.6704,1.6711,1.6716,1.6741,1.6751,1.6643,1.6643,1.6643,0,0,1.6562,1.6561,1.6575,1.6591,1.6594,1.6615,1.6575,1.6599,1.6615,1.6581,1.6614,1.6612,1.6618,1.6659,1.6677,1.666,1.6746,1.6717,1.6722,1.6724,1.6747,1.6757,1.6766,1.6646,1.6646,1.6645,0,0,1.6632,1.6633,1.6665,1.6668,1.6672,1.6664,1.6672,1.6671,1.6668,1.67,1.6675,1.6693,1.6724,1.6729,1.6735,1.6805,1.6786,1.6811,1.6853,1.6877,1.6885,1.6893,1.6918,1.6927,1.6816,1.6816,1.6816,0,1.6673,1.6703,1.6684,1.671,1.6717,1.6687,1.6719,1.6723,1.6732,1.6738,1.6719,1.6756,1.6758,1.6799,1.6816,1.6822,1.683,1.6811,1.6886,1.6893,1.69,1.6923,1.6933,1.6819,1.6819,1.6819,1.6818,0,1.6752,1.6773,1.6798,1.6807,1.6818,1.6846,1.6832,1.6845,1.6831,1.6825,1.6858,1.6858,1.6873,1.6882,1.6869,1.6921,1.691,1.6889,1.6855,1.6913,1.6935,1.6944,1.6824,1.6823,1.6822,1.6821,0,0,1.6854,1.6851,1.686,1.6864,1.6865,1.6881,1.6908,1.6922,1.6933,1.6941,1.6963,1.6989,1.6968,1.6975,1.6963,1.6984,1.7039,1.6959,1.6959,1.6974,1.7096,1.7113,1.7123,1.7025,1.7027,1.7028,1.7095,0,1.6922,1.6968,1.6952,1.6998,1.7018,1.6988,1.7012,1.7015,1.701,1.7026,1.7019,1.7038,1.701,1.7014,1.7033,1.7028,1.7063,1.7023,1.7046,1.7047,1.7046,1.7135,1.7152,1.7216,1.7104,1.7105,1.7106,0,1.7009,1.7018,1.7067,1.7064,1.7072,1.7093,1.7104,1.7119,1.7122,1.7117,1.7124,1.7106,1.7133,1.7098,1.7134,1.7107,1.7116,1.7115,1.7117,1.7119,1.7081,1.7139,1.7236,1.7245,1.712,1.7119,1.7118,0,1.7078,1.7103,1.7135,1.7139,1.7137,1.7152,1.7152,1.7153,1.7162,1.7171,1.7177,1.719,1.7197,1.7207,1.7193,1.7169,1.7231,1.7196,1.7227,1.7228,1.7242,1.7242,1.7342,1.7247,1.7247,1.7247,1.7247,0,1.7157,1.7188,1.7166,1.7186,1.722,1.72,1.7234,1.723,1.7231,1.725,1.7226,1.7244,1.7224,1.724,1.723,1.7261,1.7264,1.7261,1.7258,1.7263,1.7264,1.7269,1.7264,1.7249,1.7249,1.7248,1.7248,0,1.724,1.7227,1.726,1.7255,1.7254,1.7279,1.7274,1.7292,1.7284,1.7308,1.7313,1.7301,1.7318,1.7305,1.7323,1.7316,1.7357,1.7348,1.7356,1.7353,1.7386,1.7383,1.7493,1.7506,1.7403,1.7404,1.7405,0,1.7292,1.7314,1.7311,1.7321,1.7322,1.7339,1.7348,1.7329,1.7339,1.7344,1.7362,1.7377,1.7388,1.7418,1.7411,1.7424,1.7415,1.7453,1.7417,1.7422,1.7416,1.7415,1.7417,1.746,1.7461,1.7462,1.7463,0,1.7384,1.7376,1.7389,1.7399,1.741,1.7418,1.7424,1.7434,1.7414,1.7427,1.7444,1.7453,1.747,1.7486,1.7496,1.7496,1.7477,1.7474,1.7482,1.7489,1.7492,1.7491,1.7376,1.7472,1.7471,1.7471,1.747,1.747,1.7453,1.7471,1.7471,1.7487,1.7489,1.7494,1.7511,1.7504,1.7518,1.753,1.7518,1.7539,1.7541,1.7553,1.7555,1.7571,1.7556,1.7568,1.7571,1.7574,1.7579,1.7489,1.7573,1.7573,1.7573,1.7573,1.7572,0,1.7544,1.7542,1.7556,1.7564,1.7576,1.7555,1.756,1.7572,1.759,1.7593,1.7604,1.7624,1.7638,1.7632,1.7645,1.7659,1.765,1.7663,1.7662,1.7662,1.7592,1.7583,1.767,1.767,1.767,1.767,1.767,1.767,1.7592,1.7623,1.7614,1.7645,1.7643,1.7663,1.7667,1.7672,1.7674,1.7697,1.7709,1.7704,1.7703,1.7716,1.7728,1.7726,1.7732,1.7748,1.7743,1.7677,1.7667,1.7658,1.765,1.7749,1.775,1.7812,1.7813,1.7813]}]]